| time (UTC) | temp C | wind direction | speed KPH | gust KPH | rain 1hr cm | rain 24hr cm | rain mn cm | humidity % | barometer mb |
| 20260904201105 | 26 | 177 | 1.6 | 4.8 | 0.00 | 0.53 | 0.03 | 42 | 1025.4 |
| 20260904200618 | 26 | 298 | 1.6 | 6.4 | 0.00 | 0.53 | 0.03 | 41 | 1025.5 |
| 20260904200112 | 26 | 150 | 3.2 | 6.4 | 0.00 | 0.53 | 0.03 | 42 | 1025.6 |
| 20260904195626 | 26 | 146 | 0.0 | 8.0 | 0.00 | 0.53 | 0.03 | 44 | 1025.6 |
| 20260904195117 | 26 | 212 | 3.2 | 8.0 | 0.00 | 0.53 | 0.03 | 42 | 1025.6 |
| 20260904194615 | 26 | 279 | 1.6 | 14.5 | 0.00 | 0.53 | 0.03 | 41 | 1025.8 |
| 20260904194108 | 26 | 293 | 3.2 | 14.5 | 0.00 | 0.53 | 0.03 | 42 | 1025.8 |
| 20260904193602 | 26 | 139 | 1.6 | 4.8 | 0.00 | 0.53 | 0.03 | 46 | 1025.8 |
| 20260904193115 | 25 | 198 | 3.2 | 8.0 | 0.00 | 0.53 | 0.03 | 45 | 1025.9 |
| 20260904192609 | 25 | 105 | 3.2 | 12.9 | 0.00 | 0.53 | 0.03 | 45 | 1026.0 |
| 20260904192103 | 24 | 145 | 4.8 | 12.9 | 0.00 | 0.53 | 0.03 | 51 | 1025.9 |
| 20260904191615 | 23 | 41 | 4.8 | 8.0 | 0.00 | 0.53 | 0.03 | 47 | 1026.1 |
| 20260904191108 | 23 | 139 | 1.6 | 6.4 | 0.00 | 0.53 | 0.03 | 49 | 1026.2 |
| 20260904190606 | 23 | 105 | 1.6 | 4.8 | 0.00 | 0.53 | 0.03 | 50 | 1026.2 |
| 20260904190120 | 23 | 115 | 0.0 | 4.8 | 0.00 | 0.53 | 0.03 | 47 | 1026.2 |
| 20260904185613 | 23 | 138 | 0.0 | 1.6 | 0.00 | 0.53 | 0.03 | 47 | 1026.2 |
| 20260904185127 | 23 | 138 | 0.0 | 3.2 | 0.00 | 0.53 | 0.03 | 49 | 1026.3 |
| 20260904184619 | 23 | 138 | 1.6 | 6.4 | 0.00 | 0.53 | 0.03 | 46 | 1026.4 |
| 20260904184112 | 23 | 140 | 3.2 | 11.3 | 0.00 | 0.53 | 0.03 | 46 | 1026.4 |
| 20260904183606 | 23 | 29 | 4.8 | 11.3 | 0.00 | 0.53 | 0.03 | 46 | 1026.5 |
| 20260904183120 | 23 | 67 | 1.6 | 4.8 | 0.00 | 0.53 | 0.03 | 47 | 1026.6 |
| 20260904182614 | 23 | 67 | 1.6 | 12.9 | 0.00 | 0.53 | 0.03 | 47 | 1026.6 |
| 20260904182111 | 23 | 144 | 4.8 | 12.9 | 0.00 | 0.53 | 0.03 | 47 | 1026.7 |
| 20260904181605 | 24 | 128 | 6.4 | 11.3 | 0.00 | 0.53 | 0.03 | 44 | 1026.7 |
| 20260904181119 | 24 | 70 | 0.0 | 8.0 | 0.00 | 0.53 | 0.03 | 46 | 1026.7 |
| 20260904180612 | 24 | 142 | 3.2 | 8.0 | 0.00 | 0.53 | 0.03 | 44 | 1026.8 |
| 20260904180105 | 24 | 94 | 1.6 | 11.3 | 0.00 | 0.53 | 0.03 | 47 | 1026.8 |
| 20260904175620 | 24 | 141 | 3.2 | 11.3 | 0.00 | 0.53 | 0.03 | 45 | 1026.9 |
| 20260904175114 | 24 | 221 | 1.6 | 6.4 | 0.00 | 0.53 | 0.03 | 46 | 1026.8 |
| 20260904174611 | 24 | 107 | 3.2 | 4.8 | 0.00 | 0.53 | 0.03 | 49 | 1026.9 |
| 20260904174105 | 24 | 25 | 1.6 | 6.4 | 0.00 | 0.53 | 0.03 | 49 | 1026.9 |
| 20260904173639 | 24 | 35 | 3.2 | 6.4 | 0.00 | 0.53 | 0.03 | 50 | 1026.8 |
| 20260904173111 | 23 | 159 | 3.2 | 8.0 | 0.00 | 0.53 | 0.03 | 49 | 1026.9 |
| 20260904172605 | 23 | 194 | 1.6 | 8.0 | 0.00 | 0.53 | 0.03 | 47 | 1026.9 |
| 20260904172119 | 22 | 234 | 0.0 | 6.4 | 0.00 | 0.53 | 0.03 | 49 | 1026.9 |
| 20260904171633 | 22 | 53 | 4.8 | 6.4 | 0.00 | 0.53 | 0.03 | 48 | 1026.9 |
| 20260904171105 | 22 | 59 | 1.6 | 6.4 | 0.00 | 0.53 | 0.03 | 50 | 1026.9 |
| 20260904170618 | 22 | 40 | 3.2 | 6.4 | 0.00 | 0.53 | 0.03 | 49 | 1026.9 |
| 20260904170116 | 22 | 46 | 4.8 | 6.4 | 0.00 | 0.53 | 0.03 | 48 | 1027.0 |
| 20260904165609 | 22 | 46 | 0.0 | 6.4 | 0.00 | 0.53 | 0.03 | 50 | 1027.0 |
| 20260904165102 | 22 | 46 | 1.6 | 6.4 | 0.00 | 0.53 | 0.03 | 50 | 1027.1 |
| 20260904164617 | 22 | 68 | 3.2 | 9.7 | 0.00 | 0.53 | 0.03 | 51 | 1027.1 |
| 20260904164110 | 22 | 154 | 0.0 | 8.0 | 0.00 | 0.53 | 0.03 | 51 | 1027.0 |
| 20260904163604 | 22 | 57 | 3.2 | 6.4 | 0.00 | 0.53 | 0.03 | 51 | 1027.0 |
| 20260904163118 | 22 | 207 | 0.0 | 6.4 | 0.00 | 0.53 | 0.03 | 50 | 1027.2 |
| 20260904162611 | 22 | 207 | 4.8 | 6.4 | 0.00 | 0.53 | 0.03 | 51 | 1027.2 |
| 20260904162109 | 21 | 34 | 1.6 | 6.4 | 0.00 | 0.53 | 0.03 | 53 | 1027.2 |
| 20260904161642 | 21 | 123 | 1.6 | 3.2 | 0.00 | 0.53 | 0.03 | 53 | 1027.2 |
| 20260904161114 | 21 | 125 | 1.6 | 3.2 | 0.00 | 0.53 | 0.03 | 54 | 1027.1 |
| 20260904160607 | 21 | 72 | 1.6 | 3.2 | 0.00 | 0.53 | 0.03 | 53 | 1027.1 |
| 20260904160120 | 21 | 163 | 0.0 | 0.0 | 0.00 | 0.53 | 0.03 | 53 | 1027.1 |
| 20260904155634 | 21 | 163 | 0.0 | 1.6 | 0.00 | 0.53 | 0.03 | 52 | 1027.1 |
| 20260904155105 | 21 | 163 | 0.0 | 4.8 | 0.00 | 0.53 | 0.03 | 54 | 1027.1 |
| 20260904154619 | 21 | 163 | 1.6 | 4.8 | 0.00 | 0.53 | 0.03 | 53 | 1027.1 |
| 20260904154112 | 21 | 163 | 3.2 | 4.8 | 0.00 | 0.53 | 0.03 | 52 | 1027.0 |
| 20260904153607 | 21 | 163 | 1.6 | 6.4 | 0.00 | 0.53 | 0.03 | 53 | 1027.1 |
| 20260904153104 | 21 | 156 | 0.0 | 4.8 | 0.00 | 0.53 | 0.03 | 54 | 1027.1 |
| 20260904152618 | 21 | 138 | 1.6 | 4.8 | 0.00 | 0.53 | 0.03 | 56 | 1027.1 |
| 20260904152111 | 20 | 130 | 1.6 | 4.8 | 0.00 | 0.53 | 0.03 | 60 | 1027.0 |
| 20260904151605 | 20 | 31 | 3.2 | 4.8 | 0.00 | 0.53 | 0.03 | 59 | 1027.0 |
| 20260904151140 | 20 | 101 | 0.0 | 1.6 | 0.00 | 0.53 | 0.03 | 59 | 1027.0 |
| 20260904150613 | 20 | 66 | 0.0 | 3.2 | 0.00 | 0.53 | 0.03 | 61 | 1027.0 |
| 20260904150106 | 20 | 67 | 0.0 | 3.2 | 0.00 | 0.53 | 0.03 | 61 | 1027.0 |
| 20260904145620 | 19 | 67 | 0.0 | 3.2 | 0.00 | 0.53 | 0.03 | 59 | 1027.0 |
| 20260904145114 | 19 | 173 | 0.0 | 4.8 | 0.00 | 0.53 | 0.03 | 61 | 1027.0 |
| 20260904144611 | 18 | 173 | 3.2 | 4.8 | 0.00 | 0.53 | 0.03 | 62 | 1026.9 |
| 20260904144106 | 18 | 144 | 0.0 | 0.0 | 0.00 | 0.53 | 0.03 | 68 | 1026.9 |
| 20260904143619 | 17 | 105 | 0.0 | 0.0 | 0.00 | 0.53 | 0.03 | 72 | 1026.9 |
| 20260904143113 | 17 | 105 | 0.0 | 0.0 | 0.00 | 0.53 | 0.03 | 78 | 1026.9 |
| 20260904142606 | 16 | 105 | 0.0 | 0.0 | 0.00 | 0.53 | 0.03 | 79 | 1026.8 |
| 20260904142120 | 16 | 105 | 0.0 | 0.0 | 0.00 | 0.53 | 0.03 | 76 | 1026.7 |
| 20260904141634 | 16 | 105 | 0.0 | 0.0 | 0.00 | 0.53 | 0.03 | 78 | 1026.7 |
| 20260904141106 | 16 | 105 | 0.0 | 0.0 | 0.00 | 0.53 | 0.03 | 78 | 1026.6 |
| 20260904140604 | 15 | 105 | 0.0 | 0.0 | 0.00 | 0.53 | 0.03 | 82 | 1026.5 |
| 20260904140117 | 15 | 105 | 0.0 | 0.0 | 0.00 | 0.53 | 0.03 | 83 | 1026.5 |
| 20260904135611 | 15 | 105 | 0.0 | 0.0 | 0.00 | 0.53 | 0.03 | 82 | 1026.3 |
| 20260904135104 | 15 | 105 | 0.0 | 0.0 | 0.00 | 0.53 | 0.03 | 83 | 1026.2 |
| 20260904134618 | 15 | 105 | 0.0 | 0.0 | 0.03 | 0.53 | 0.03 | 82 | 1026.1 |
| 20260904134110 | 15 | 105 | 0.0 | 0.0 | 0.03 | 0.53 | 0.03 | 82 | 1026.1 |
| 20260904133604 | 15 | 105 | 0.0 | 0.0 | 0.03 | 0.53 | 0.03 | 81 | 1026.1 |
| 20260904133117 | 15 | 105 | 0.0 | 0.0 | 0.03 | 0.53 | 0.03 | 81 | 1026.1 |
| 20260904132616 | 15 | 105 | 0.0 | 0.0 | 0.03 | 0.53 | 0.03 | 82 | 1026.1 |
| 20260904132108 | 15 | 105 | 0.0 | 0.0 | 0.03 | 0.53 | 0.03 | 82 | 1026.0 |
| 20260904131602 | 15 | 105 | 0.0 | 0.0 | 0.03 | 0.53 | 0.03 | 82 | 1025.9 |
| 20260904131116 | 15 | 105 | 0.0 | 0.0 | 0.03 | 0.53 | 0.03 | 83 | 1025.7 |
| 20260904130609 | 15 | 105 | 0.0 | 0.0 | 0.03 | 0.53 | 0.03 | 83 | 1025.8 |
| 20260904130143 | 15 | 105 | 0.0 | 0.0 | 0.03 | 0.53 | 0.03 | 82 | 1025.7 |
| 20260904125616 | 15 | 105 | 0.0 | 0.0 | 0.03 | 0.53 | 0.03 | 82 | 1025.5 |
| 20260904125110 | 15 | 105 | 0.0 | 0.0 | 0.03 | 0.53 | 0.03 | 80 | 1025.5 |
| 20260904124608 | 15 | 105 | 0.0 | 0.0 | 0.00 | 0.51 | 0.00 | 81 | 1025.4 |
| 20260904124122 | 15 | 105 | 0.0 | 0.0 | 0.00 | 0.51 | 0.00 | 81 | 1025.4 |
| 20260904123615 | 15 | 105 | 0.0 | 0.0 | 0.00 | 0.51 | 0.00 | 82 | 1025.5 |
| 20260904123108 | 15 | 105 | 0.0 | 0.0 | 0.00 | 0.51 | 0.00 | 82 | 1025.4 |
| 20260904122621 | 15 | 105 | 0.0 | 0.0 | 0.00 | 0.51 | 0.00 | 81 | 1025.4 |
| 20260904122115 | 15 | 105 | 0.0 | 0.0 | 0.00 | 0.51 | 0.00 | 80 | 1025.3 |
| 20260904121629 | 15 | 105 | 0.0 | 0.0 | 0.00 | 0.51 | 0.00 | 81 | 1025.3 |
| 20260904121102 | 15 | 105 | 0.0 | 0.0 | 0.00 | 0.51 | 0.00 | 80 | 1025.2 |
| 20260904120614 | 15 | 105 | 0.0 | 0.0 | 0.00 | 0.51 | 0.00 | 80 | 1025.1 |
| 20260904120112 | 15 | 105 | 0.0 | 0.0 | 0.00 | 0.51 | 0.00 | 81 | 1025.1 |
| 20260904115625 | 15 | 105 | 0.0 | 0.0 | 0.00 | 0.51 | 0.00 | 83 | 1025.1 |
| 20260904115117 | 15 | 105 | 0.0 | 0.0 | 0.00 | 0.51 | 0.00 | 81 | 1025.0 |
| 20260904114610 | 15 | 105 | 0.0 | 0.0 | 0.00 | 0.51 | 0.00 | 81 | 1025.0 |
| 20260904114123 | 15 | 105 | 0.0 | 0.0 | 0.00 | 0.51 | 0.00 | 82 | 1024.9 |
| 20260904113617 | 15 | 105 | 0.0 | 0.0 | 0.00 | 0.51 | 0.00 | 81 | 1024.9 |
| 20260904113111 | 15 | 105 | 0.0 | 0.0 | 0.00 | 0.51 | 0.00 | 79 | 1024.9 |
| 20260904112626 | 15 | 105 | 0.0 | 0.0 | 0.00 | 0.51 | 0.00 | 80 | 1024.8 |
| 20260904112118 | 15 | 105 | 0.0 | 0.0 | 0.00 | 0.51 | 0.00 | 80 | 1024.8 |
| 20260904111632 | 15 | 105 | 0.0 | 0.0 | 0.00 | 0.51 | 0.00 | 81 | 1024.9 |
| 20260904111106 | 15 | 105 | 0.0 | 0.0 | 0.00 | 0.51 | 0.00 | 82 | 1024.9 |
| 20260904110604 | 15 | 105 | 0.0 | 0.0 | 0.00 | 0.51 | 0.00 | 80 | 1024.8 |
| 20260904110118 | 15 | 105 | 0.0 | 0.0 | 0.00 | 0.51 | 0.00 | 80 | 1024.8 |
| 20260904105612 | 15 | 105 | 0.0 | 0.0 | 0.00 | 0.51 | 0.00 | 81 | 1024.8 |
| 20260904105126 | 15 | 105 | 0.0 | 0.0 | 0.00 | 0.51 | 0.00 | 83 | 1024.7 |
| 20260904104620 | 15 | 105 | 0.0 | 0.0 | 0.00 | 0.51 | 0.00 | 82 | 1024.6 |
| 20260904104113 | 15 | 105 | 0.0 | 0.0 | 0.00 | 0.51 | 0.00 | 84 | 1024.6 |
| 20260904103607 | 15 | 105 | 0.0 | 0.0 | 0.00 | 0.51 | 0.00 | 82 | 1024.5 |
| 20260904103121 | 15 | 105 | 0.0 | 0.0 | 0.00 | 0.51 | 0.00 | 82 | 1024.5 |
| 20260904102615 | 15 | 105 | 0.0 | 0.0 | 0.00 | 0.51 | 0.00 | 81 | 1024.5 |
| 20260904102113 | 15 | 105 | 0.0 | 0.0 | 0.00 | 0.51 | 0.00 | 82 | 1024.5 |
| 20260904101607 | 15 | 105 | 0.0 | 0.0 | 0.00 | 0.51 | 0.00 | 82 | 1024.5 |
| 20260904101121 | 14 | 105 | 0.0 | 0.0 | 0.00 | 0.51 | 0.00 | 81 | 1024.5 |
| 20260904100616 | 14 | 105 | 0.0 | 0.0 | 0.00 | 0.51 | 0.00 | 82 | 1024.5 |
| 20260904100111 | 14 | 105 | 0.0 | 0.0 | 0.00 | 0.51 | 0.00 | 83 | 1024.6 |
| 20260904095605 | 14 | 105 | 0.0 | 0.0 | 0.00 | 0.51 | 0.00 | 84 | 1024.5 |
| 20260904095139 | 14 | 105 | 0.0 | 0.0 | 0.00 | 0.51 | 0.00 | 82 | 1024.5 |
| 20260904094612 | 14 | 105 | 0.0 | 0.0 | 0.00 | 0.51 | 0.00 | 82 | 1024.5 |
| 20260904094109 | 14 | 105 | 0.0 | 0.0 | 0.00 | 0.51 | 0.00 | 83 | 1024.5 |
| 20260904093604 | 14 | 105 | 0.0 | 0.0 | 0.00 | 0.51 | 0.00 | 84 | 1024.4 |
| 20260904093118 | 14 | 105 | 0.0 | 0.0 | 0.00 | 0.51 | 0.00 | 83 | 1024.4 |
| 20260904092612 | 13 | 105 | 0.0 | 0.0 | 0.00 | 0.51 | 0.00 | 82 | 1024.4 |
| 20260904092106 | 13 | 105 | 0.0 | 0.0 | 0.00 | 0.51 | 0.00 | 82 | 1024.5 |
| 20260904091637 | 13 | 105 | 0.0 | 0.0 | 0.00 | 0.51 | 0.00 | 83 | 1024.5 |
| 20260904091111 | 13 | 105 | 0.0 | 0.0 | 0.00 | 0.51 | 0.00 | 82 | 1024.6 |
| 20260904090604 | 13 | 105 | 0.0 | 0.0 | 0.00 | 0.51 | 0.00 | 83 | 1024.5 |
| 20260904085616 | 13 | 105 | 0.0 | 0.0 | 0.00 | 0.51 | 0.00 | 83 | 1024.6 |
| 20260904085111 | 13 | 105 | 0.0 | 0.0 | 0.00 | 0.51 | 0.00 | 83 | 1024.5 |
| 20260904084625 | 13 | 105 | 0.0 | 0.0 | 0.00 | 0.51 | 0.00 | 84 | 1024.5 |
| 20260904084118 | 13 | 105 | 0.0 | 0.0 | 0.00 | 0.51 | 0.00 | 84 | 1024.5 |
| 20260904083633 | 13 | 105 | 0.0 | 0.0 | 0.00 | 0.51 | 0.00 | 82 | 1024.6 |
| 20260904083106 | 13 | 105 | 0.0 | 0.0 | 0.00 | 0.51 | 0.00 | 84 | 1024.6 |
| 20260904082620 | 13 | 105 | 0.0 | 0.0 | 0.00 | 0.51 | 0.00 | 85 | 1024.6 |
| 20260904082114 | 13 | 105 | 0.0 | 0.0 | 0.00 | 0.51 | 0.00 | 84 | 1024.7 |
| 20260904081612 | 13 | 105 | 0.0 | 0.0 | 0.00 | 0.51 | 0.00 | 83 | 1024.7 |
| 20260904081106 | 13 | 105 | 0.0 | 0.0 | 0.00 | 0.51 | 0.00 | 82 | 1024.7 |
| 20260904080620 | 13 | 105 | 0.0 | 0.0 | 0.00 | 0.51 | 0.00 | 81 | 1024.6 |
| 20260904080116 | 13 | 105 | 0.0 | 0.0 | 0.00 | 0.51 | 0.00 | 83 | 1024.6 |
| 20260904075608 | 13 | 105 | 0.0 | 0.0 | 0.00 | 0.51 | 0.00 | 82 | 1024.7 |
| 20260904075122 | 13 | 105 | 0.0 | 0.0 | 0.00 | 0.51 | 0.00 | 81 | 1024.6 |
| 20260904074615 | 13 | 105 | 0.0 | 0.0 | 0.00 | 0.51 | 0.00 | 80 | 1024.7 |
| 20260904074109 | 13 | 105 | 0.0 | 0.0 | 0.00 | 0.51 | 0.00 | 81 | 1024.8 |
| 20260904073607 | 13 | 105 | 0.0 | 0.0 | 0.00 | 0.51 | 0.00 | 81 | 1024.8 |
| 20260904073103 | 13 | 105 | 0.0 | 0.0 | 0.00 | 0.51 | 0.00 | 81 | 1024.9 |
| 20260904072617 | 13 | 105 | 0.0 | 0.0 | 0.00 | 0.51 | 0.00 | 81 | 1024.9 |
| 20260904072111 | 13 | 105 | 0.0 | 0.0 | 0.00 | 0.51 | 0.00 | 81 | 1025.0 |
| 20260904071625 | 13 | 105 | 0.0 | 0.0 | 0.00 | 0.51 | 0.00 | 82 | 1024.8 |
| 20260904071139 | 13 | 105 | 0.0 | 0.0 | 0.00 | 0.51 | 0.00 | 81 | 1024.8 |
| 20260904070612 | 13 | 105 | 0.0 | 0.0 | 0.00 | 0.51 | 0.00 | 80 | 1024.9 |
| 20260904070106 | 13 | 105 | 0.0 | 0.0 | 0.00 | 0.51 | 0.00 | 80 | 1024.8 |
| 20260904065604 | 13 | 105 | 0.0 | 0.0 | 0.00 | 0.51 | 0.00 | 80 | 1024.8 |
| 20260904065118 | 14 | 105 | 0.0 | 0.0 | 0.00 | 0.51 | 0.00 | 80 | 1024.8 |
| 20260904064613 | 14 | 105 | 0.0 | 0.0 | 0.00 | 0.51 | 0.00 | 79 | 1024.8 |
| 20260904064107 | 14 | 105 | 0.0 | 0.0 | 0.00 | 0.51 | 0.00 | 80 | 1024.8 |
| 20260904063642 | 14 | 105 | 0.0 | 0.0 | 0.00 | 0.51 | 0.00 | 79 | 1024.9 |
| 20260904063114 | 14 | 105 | 0.0 | 0.0 | 0.00 | 0.51 | 0.51 | 80 | 1025.0 |
| 20260904062609 | 15 | 105 | 0.0 | 0.0 | 0.00 | 0.51 | 0.51 | 80 | 1025.0 |
| 20260904062102 | 15 | 105 | 0.0 | 0.0 | 0.00 | 0.51 | 0.51 | 79 | 1025.0 |
| 20260904061617 | 15 | 105 | 0.0 | 0.0 | 0.00 | 0.51 | 0.51 | 79 | 1025.0 |
| 20260904061115 | 15 | 105 | 0.0 | 0.0 | 0.00 | 0.51 | 0.51 | 79 | 1025.0 |
| 20260904060609 | 15 | 105 | 0.0 | 0.0 | 0.00 | 0.51 | 0.51 | 78 | 1025.0 |
| 20260904060103 | 15 | 105 | 0.0 | 0.0 | 0.00 | 0.51 | 0.51 | 78 | 1025.0 |
| 20260904055617 | 15 | 105 | 0.0 | 0.0 | 0.00 | 0.51 | 0.51 | 78 | 1025.1 |
| 20260904055110 | 15 | 105 | 0.0 | 0.0 | 0.00 | 0.51 | 0.51 | 77 | 1025.1 |
| 20260904054605 | 15 | 105 | 0.0 | 0.0 | 0.00 | 0.51 | 0.51 | 78 | 1025.2 |
| 20260904054118 | 15 | 105 | 0.0 | 0.0 | 0.00 | 0.51 | 0.51 | 79 | 1025.2 |
| 20260904053612 | 15 | 105 | 0.0 | 0.0 | 0.00 | 0.51 | 0.51 | 78 | 1025.2 |
| 20260904053110 | 15 | 105 | 0.0 | 0.0 | 0.00 | 0.51 | 0.51 | 77 | 1025.3 |
| 20260904052604 | 15 | 105 | 0.0 | 0.0 | 0.00 | 0.51 | 0.51 | 78 | 1025.3 |
| 20260904052118 | 15 | 105 | 0.0 | 0.0 | 0.00 | 0.51 | 0.51 | 78 | 1025.2 |
| 20260904051613 | 15 | 105 | 0.0 | 0.0 | 0.00 | 0.51 | 0.51 | 79 | 1025.2 |
| 20260904051107 | 16 | 105 | 0.0 | 0.0 | 0.00 | 0.51 | 0.51 | 76 | 1025.1 |
| 20260904050621 | 16 | 105 | 0.0 | 0.0 | 0.00 | 0.51 | 0.51 | 76 | 1025.2 |
| 20260904050136 | 16 | 105 | 0.0 | 0.0 | 0.00 | 0.51 | 0.51 | 76 | 1025.1 |
| 20260904045610 | 16 | 105 | 0.0 | 0.0 | 0.00 | 0.51 | 0.51 | 74 | 1025.1 |
| 20260904045108 | 16 | 105 | 0.0 | 0.0 | 0.00 | 0.51 | 0.51 | 77 | 1025.2 |
| 20260904044602 | 16 | 105 | 0.0 | 0.0 | 0.00 | 0.51 | 0.51 | 75 | 1025.2 |
| 20260904044117 | 16 | 105 | 0.0 | 0.0 | 0.00 | 0.51 | 0.51 | 74 | 1025.3 |
| 20260904043611 | 16 | 105 | 0.0 | 0.0 | 0.00 | 0.51 | 0.51 | 73 | 1025.2 |
| 20260904043105 | 17 | 105 | 0.0 | 0.0 | 0.00 | 0.51 | 0.51 | 70 | 1025.3 |
| 20260904042639 | 17 | 105 | 0.0 | 0.0 | 0.00 | 0.51 | 0.51 | 70 | 1025.4 |
| 20260904042112 | 17 | 105 | 0.0 | 0.0 | 0.00 | 0.51 | 0.51 | 72 | 1025.3 |
| 20260904041606 | 17 | 105 | 0.0 | 0.0 | 0.00 | 0.51 | 0.51 | 70 | 1025.3 |
| 20260904041104 | 17 | 105 | 0.0 | 0.0 | 0.00 | 0.51 | 0.51 | 69 | 1025.3 |
| 20260904040618 | 17 | 105 | 0.0 | 0.0 | 0.00 | 0.51 | 0.51 | 69 | 1025.3 |
| 20260904040112 | 17 | 105 | 0.0 | 0.0 | 0.00 | 0.51 | 0.51 | 68 | 1025.3 |
| 20260904035606 | 17 | 105 | 0.0 | 0.0 | 0.00 | 0.51 | 0.51 | 71 | 1025.3 |
| 20260904035120 | 17 | 105 | 0.0 | 0.0 | 0.00 | 0.51 | 0.51 | 71 | 1025.3 |
| 20260904034635 | 18 | 105 | 0.0 | 0.0 | 0.00 | 0.51 | 0.51 | 70 | 1025.1 |
| 20260904034107 | 18 | 230 | 0.0 | 0.0 | 0.00 | 0.51 | 0.51 | 69 | 1025.0 |
| 20260904033603 | 18 | 230 | 0.0 | 0.0 | 0.00 | 0.51 | 0.51 | 68 | 1025.0 |
| 20260904033116 | 18 | 230 | 0.0 | 0.0 | 0.00 | 0.51 | 0.51 | 68 | 1025.0 |
| 20260904032614 | 18 | 230 | 0.0 | 0.0 | 0.00 | 0.51 | 0.51 | 67 | 1025.0 |
| 20260904032108 | 18 | 230 | 0.0 | 0.0 | 0.00 | 0.51 | 0.51 | 65 | 1024.9 |
| 20260904031603 | 19 | 230 | 0.0 | 4.8 | 0.00 | 0.51 | 0.51 | 63 | 1024.9 |
| 20260904031117 | 19 | 230 | 1.6 | 4.8 | 0.00 | 0.51 | 0.51 | 57 | 1024.8 |
| 20260904030631 | 19 | 244 | 3.2 | 4.8 | 0.00 | 0.51 | 0.51 | 56 | 1024.8 |
| 20260904030105 | 19 | 233 | 3.2 | 6.4 | 0.00 | 0.51 | 0.51 | 57 | 1024.7 |
| 20260904025619 | 19 | 257 | 1.6 | 9.7 | 0.00 | 0.51 | 0.51 | 58 | 1024.7 |
| 20260904025134 | 18 | 238 | 3.2 | 9.7 | 0.00 | 0.51 | 0.51 | 56 | 1024.6 |
| 20260904024611 | 18 | 328 | 3.2 | 4.8 | 0.00 | 0.51 | 0.51 | 60 | 1024.5 |
| 20260904024104 | 18 | 243 | 3.2 | 6.4 | 0.00 | 0.51 | 0.51 | 61 | 1024.5 |
| 20260904023618 | 18 | 348 | 0.0 | 11.3 | 0.00 | 0.51 | 0.51 | 60 | 1024.5 |
| 20260904023132 | 18 | 291 | 3.2 | 11.3 | 0.00 | 0.51 | 0.51 | 62 | 1024.3 |
| 20260904022605 | 18 | 247 | 6.4 | 12.9 | 0.00 | 0.51 | 0.51 | 65 | 1024.2 |
| 20260904022120 | 18 | 19 | 4.8 | 17.7 | 0.00 | 0.51 | 0.51 | 64 | 1024.2 |
| 20260904021614 | 18 | 318 | 4.8 | 17.7 | 0.00 | 0.51 | 0.51 | 65 | 1024.1 |
| 20260904021107 | 17 | 350 | 4.8 | 14.5 | 0.00 | 0.51 | 0.51 | 68 | 1024.1 |
| 20260904020621 | 17 | 289 | 6.4 | 14.5 | 0.00 | 0.51 | 0.51 | 67 | 1024.1 |
| 20260904020135 | 17 | 48 | 4.8 | 12.9 | 0.00 | 0.51 | 0.51 | 69 | 1024.3 |
| 20260904015611 | 17 | 337 | 6.4 | 14.5 | 0.00 | 0.51 | 0.51 | 72 | 1024.2 |
| 20260904015106 | 17 | 5 | 0.0 | 11.3 | 0.00 | 0.51 | 0.51 | 75 | 1024.1 |
| 20260904014620 | 16 | 79 | 0.0 | 8.0 | 0.00 | 0.51 | 0.51 | 82 | 1024.1 |
| 20260904014115 | 16 | 229 | 0.0 | 3.2 | 0.00 | 0.51 | 0.51 | 85 | 1024.2 |
| 20260904013607 | 16 | 223 | 0.0 | 3.2 | 0.00 | 0.51 | 0.51 | 85 | 1024.1 |
| 20260904013102 | 16 | 5 | 0.0 | 4.8 | 0.10 | 0.51 | 0.51 | 85 | 1024.0 |
| 20260904012616 | 16 | 51 | 0.0 | 4.8 | 0.51 | 0.51 | 0.51 | 84 | 1023.9 |
| 20260904012114 | 16 | 89 | 0.0 | 6.4 | 0.51 | 0.51 | 0.51 | 85 | 1023.9 |
| 20260904011628 | 16 | 129 | 1.6 | 6.4 | 0.51 | 0.51 | 0.51 | 89 | 1023.8 |
| 20260904011142 | 16 | 227 | 0.0 | 0.0 | 0.51 | 0.51 | 0.51 | 88 | 1023.7 |
| 20260904010613 | 16 | 227 | 0.0 | 3.2 | 0.51 | 0.51 | 0.51 | 87 | 1023.6 |
| 20260904010127 | 16 | 227 | 0.0 | 4.8 | 0.51 | 0.51 | 0.51 | 86 | 1023.7 |
| 20260904005621 | 16 | 222 | 3.2 | 4.8 | 0.51 | 0.51 | 0.51 | 84 | 1023.6 |
| 20260904005115 | 17 | 302 | 0.0 | 1.6 | 0.51 | 0.51 | 0.51 | 81 | 1023.6 |
| 20260904004608 | 17 | 302 | 0.0 | 3.2 | 0.51 | 0.51 | 0.51 | 76 | 1023.6 |
| 20260904004103 | 18 | 277 | 1.6 | 4.8 | 0.51 | 0.51 | 0.51 | 73 | 1023.9 |
| 20260904003615 | 21 | 92 | 0.0 | 6.4 | 0.51 | 0.51 | 0.51 | 60 | 1023.9 |
| 20260904003114 | 23 | 98 | 3.2 | 8.0 | 0.41 | 0.41 | 0.41 | 58 | 1024.6 |
| 20260904002608 | 25 | 199 | 1.6 | 8.0 | 0.00 | 0.00 | 0.00 | 44 | 1023.7 |
| 20260904002121 | 26 | 153 | 0.0 | 1.6 | 0.00 | 0.00 | 0.00 | 34 | 1023.2 |
| 20260904001636 | 26 | 153 | 0.0 | 3.2 | 0.00 | 0.00 | 0.00 | 33 | 1023.0 |
| 20260904001110 | 26 | 126 | 0.0 | 11.3 | 0.00 | 0.00 | 0.00 | 32 | 1023.1 |
| 20260904000604 | 26 | 148 | 4.8 | 14.5 | 0.00 | 0.00 | 0.00 | 31 | 1023.0 |
| 20260904000138 | 26 | 130 | 6.4 | 14.5 | 0.00 | 0.00 | 0.00 | 31 | 1023.0 |
| 20260903235610 | 27 | 150 | 0.0 | 8.0 | 0.00 | 0.00 | 0.00 | 32 | 1023.1 |
| 20260903235109 | 26 | 192 | 3.2 | 8.0 | 0.00 | 0.00 | 0.00 | 32 | 1023.0 |
| 20260903234623 | 26 | 148 | 1.6 | 9.7 | 0.00 | 0.00 | 0.00 | 32 | 1023.0 |
| 20260903234115 | 26 | 148 | 3.2 | 9.7 | 0.00 | 0.00 | 0.00 | 31 | 1023.0 |
| 20260903233610 | 26 | 167 | 1.6 | 14.5 | 0.00 | 0.00 | 0.00 | 32 | 1023.1 |
| 20260903233103 | 26 | 30 | 4.8 | 14.5 | 0.00 | 0.00 | 0.00 | 31 | 1023.1 |
| 20260903232617 | 27 | 38 | 1.6 | 6.4 | 0.00 | 0.00 | 0.00 | 32 | 1023.1 |
| 20260903232131 | 27 | 130 | 1.6 | 4.8 | 0.00 | 0.00 | 0.00 | 31 | 1023.1 |
| 20260903231605 | 27 | 130 | 1.6 | 8.0 | 0.00 | 0.00 | 0.00 | 30 | 1023.2 |
| 20260903231117 | 27 | 130 | 1.6 | 11.3 | 0.00 | 0.00 | 0.00 | 30 | 1023.2 |
| 20260903230611 | 27 | 136 | 4.8 | 11.3 | 0.00 | 0.00 | 0.00 | 29 | 1023.2 |
| 20260903230108 | 27 | 224 | 1.6 | 4.8 | 0.00 | 0.00 | 0.00 | 30 | 1023.2 |
| 20260903225643 | 27 | 351 | 1.6 | 4.8 | 0.00 | 0.00 | 0.00 | 30 | 1023.3 |
| 20260903225115 | 27 | 153 | 0.0 | 8.0 | 0.00 | 0.00 | 0.00 | 30 | 1023.3 |
| 20260903224609 | 27 | 153 | 1.6 | 8.0 | 0.00 | 0.00 | 0.00 | 30 | 1023.3 |
| 20260903224103 | 27 | 159 | 0.0 | 8.0 | 0.00 | 0.00 | 0.00 | 30 | 1023.4 |
| 20260903223637 | 27 | 281 | 0.0 | 8.0 | 0.00 | 0.00 | 0.00 | 30 | 1023.4 |
| 20260903223111 | 27 | 314 | 3.2 | 9.7 | 0.00 | 0.00 | 0.00 | 29 | 1023.4 |
| 20260903222604 | 27 | 309 | 3.2 | 9.7 | 0.00 | 0.00 | 0.00 | 28 | 1023.4 |
| 20260903222119 | 28 | 330 | 1.6 | 4.8 | 0.00 | 0.00 | 0.00 | 28 | 1023.5 |
| 20260903221618 | 28 | 153 | 1.6 | 8.0 | 0.00 | 0.00 | 0.00 | 28 | 1023.5 |
| 20260903221110 | 27 | 152 | 4.8 | 8.0 | 0.00 | 0.00 | 0.00 | 29 | 1023.5 |
| 20260903220625 | 27 | 276 | 1.6 | 8.0 | 0.00 | 0.00 | 0.00 | 31 | 1023.6 |
| 20260903220139 | 27 | 52 | 3.2 | 8.0 | 0.00 | 0.00 | 0.00 | 29 | 1023.6 |
| 20260903215632 | 27 | 153 | 3.2 | 8.0 | 0.00 | 0.00 | 0.00 | 29 | 1023.6 |
| 20260903215104 | 27 | 27 | 1.6 | 8.0 | 0.00 | 0.00 | 0.00 | 32 | 1023.7 |
| 20260903214619 | 27 | 60 | 3.2 | 6.4 | 0.00 | 0.00 | 0.00 | 30 | 1023.7 |
| 20260903214113 | 27 | 69 | 1.6 | 6.4 | 0.00 | 0.00 | 0.00 | 30 | 1023.8 |
| 20260903213606 | 27 | 25 | 1.6 | 6.4 | 0.00 | 0.00 | 0.00 | 30 | 1023.9 |
| 20260903213140 | 27 | 244 | 3.2 | 6.4 | 0.00 | 0.00 | 0.00 | 30 | 1023.9 |
| 20260903212615 | 27 | 289 | 3.2 | 9.7 | 0.00 | 0.00 | 0.00 | 30 | 1024.0 |
| 20260903212113 | 26 | 172 | 3.2 | 8.0 | 0.00 | 0.00 | 0.00 | 31 | 1024.0 |
| 20260903211605 | 26 | 303 | 1.6 | 6.4 | 0.00 | 0.00 | 0.00 | 31 | 1024.1 |
| 20260903211140 | 26 | 81 | 1.6 | 8.0 | 0.00 | 0.00 | 0.00 | 32 | 1024.3 |
| 20260903210613 | 26 | 257 | 1.6 | 4.8 | 0.00 | 0.00 | 0.00 | 33 | 1024.4 |
| 20260903210126 | 26 | 132 | 3.2 | 4.8 | 0.00 | 0.00 | 0.00 | 33 | 1024.5 |
| 20260903205620 | 26 | 242 | 1.6 | 9.7 | 0.00 | 0.00 | 0.00 | 31 | 1024.6 |
| 20260903205113 | 26 | 30 | 4.8 | 9.7 | 0.00 | 0.00 | 0.00 | 30 | 1024.6 |
| 20260903204608 | 27 | 37 | 3.2 | 11.3 | 0.00 | 0.00 | 0.00 | 31 | 1024.5 |
| 20260903204102 | 27 | 209 | 3.2 | 6.4 | 0.00 | 0.00 | 0.00 | 30 | 1024.6 |
| 20260903203620 | 26 | 134 | 1.6 | 8.0 | 0.00 | 0.00 | 0.00 | 32 | 1024.6 |
| 20260903203113 | 26 | 157 | 0.0 | 6.4 | 0.00 | 0.00 | 0.00 | 32 | 1024.6 |
| 20260903202607 | 26 | 64 | 3.2 | 6.4 | 0.00 | 0.00 | 0.00 | 30 | 1024.7 |
| 20260903202121 | 27 | 98 | 3.2 | 9.7 | 0.00 | 0.00 | 0.00 | 29 | 1024.8 |
| 20260903201616 | 27 | 153 | 4.8 | 12.9 | 0.00 | 0.00 | 0.00 | 30 | 1024.8 |